TimeCST,TemperatureF,Dew PointF,Humidity,Sea Level PressureIn,VisibilityMPH,Wind Direction,Wind SpeedMPH,Gust SpeedMPH,PrecipitationIn,Events,Conditions,WindDirDegrees,DateUTC
12:53 AM,43.0,35.1,74,29.79,10.0,East,5.8,-,N/A,,Overcast,100,2013-02-13 06:53:00
1:53 AM,41.0,37.0,86,29.75,8.0,Variable,4.6,-,0.04,Rain,Light Rain,0,2013-02-13 07:53:00
2:40 AM,39.2,37.4,93,29.73,3.0,East,4.6,-,0.13,Rain,Rain,100,2013-02-13 08:40:00
2:49 AM,39.2,37.4,93,29.73,5.0,East,5.8,-,0.14,Rain,Light Rain,100,2013-02-13 08:49:00
2:53 AM,39.9,37.9,93,29.73,10.0,Variable,4.6,-,0.14,,Overcast,0,2013-02-13 08:53:00
3:08 AM,39.2,37.4,93,29.73,6.0,East,4.6,-,0.00,,Overcast,100,2013-02-13 09:08:00
3:53 AM,39.9,37.9,93,29.70,4.0,ESE,4.6,-,0.01,,Overcast,110,2013-02-13 09:53:00
4:20 AM,39.2,39.2,100,29.70,3.0,Calm,Calm,-,0.00,,Overcast,0,2013-02-13 10:20:00
4:37 AM,41.0,37.4,87,29.69,2.5,Variable,4.6,-,0.00,,Overcast,0,2013-02-13 10:37:00
4:53 AM,41.0,39.0,93,29.70,2.5,Calm,Calm,-,0.01,Rain,Light Rain,0,2013-02-13 10:53:00
5:12 AM,41.0,39.2,93,29.69,1.8,East,4.6,-,0.01,Rain,Light Rain,100,2013-02-13 11:12:00
5:19 AM,41.0,39.2,93,29.69,2.0,Variable,3.5,-,0.01,Rain,Light Rain,0,2013-02-13 11:19:00
5:36 AM,39.2,39.2,100,29.68,1.8,ESE,4.6,-,0.02,,Overcast,120,2013-02-13 11:36:00
5:48 AM,39.2,39.2,100,29.68,2.5,Calm,Calm,-,0.02,,Overcast,0,2013-02-13 11:48:00
5:53 AM,39.9,39.0,97,29.70,2.5,SE,3.5,-,0.02,,Overcast,140,2013-02-13 11:53:00
6:27 AM,39.2,39.2,100,29.69,1.8,SE,3.5,-,0.02,,Overcast,130,2013-02-13 12:27:00
6:37 AM,39.2,39.2,100,29.69,2.0,SE,3.5,-,0.02,,Overcast,130,2013-02-13 12:37:00
6:53 AM,41.0,39.0,93,29.70,2.5,Calm,Calm,-,0.03,,Overcast,0,2013-02-13 12:53:00
7:13 AM,41.0,39.2,93,29.69,1.5,Calm,Calm,-,N/A,,Overcast,0,2013-02-13 13:13:00
7:53 AM,42.1,39.9,92,29.69,1.0,Calm,Calm,-,0.01,,Overcast,0,2013-02-13 13:53:00
8:53 AM,43.0,41.0,93,29.70,1.2,Variable,5.8,-,0.01,,Overcast,0,2013-02-13 14:53:00
9:15 AM,44.6,41.0,87,29.70,3.0,WSW,6.9,-,0.01,Rain,Light Rain,240,2013-02-13 15:15:00
9:22 AM,44.6,41.0,87,29.70,2.5,SW,6.9,-,0.02,Rain,Light Rain,230,2013-02-13 15:22:00
9:30 AM,44.6,41.0,87,29.70,3.0,WSW,8.1,-,0.02,Rain,Light Rain,240,2013-02-13 15:30:00
9:53 AM,43.0,39.9,89,29.71,7.0,WSW,8.1,17.3,0.03,Rain,Light Rain,240,2013-02-13 15:53:00
10:05 AM,44.6,39.2,81,29.71,10.0,SW,8.1,-,0.00,,Overcast,230,2013-02-13 16:05:00
10:15 AM,42.8,39.2,87,29.71,9.0,WSW,11.5,21.9,0.00,,Overcast,250,2013-02-13 16:15:00
10:53 AM,43.0,39.9,89,29.72,10.0,WNW,11.5,18.4,0.01,,Overcast,290,2013-02-13 16:53:00
11:13 AM,42.8,39.2,87,29.73,10.0,West,9.2,18.4,N/A,,Overcast,270,2013-02-13 17:13:00
11:25 AM,42.8,37.4,81,29.74,9.0,West,15.0,21.9,N/A,,Overcast,270,2013-02-13 17:25:00
11:53 AM,39.0,36.0,89,29.77,4.0,NW,12.7,23.0,N/A,,Overcast,310,2013-02-13 17:53:00
12:51 PM,37.4,32.0,81,29.77,10.0,NNW,13.8,25.3,N/A,,Overcast,330,2013-02-13 18:51:00
12:53 PM,37.0,32.0,82,29.78,10.0,NW,15.0,25.3,N/A,,Overcast,320,2013-02-13 18:53:00
1:34 PM,35.6,32.0,87,29.79,10.0,NW,10.4,24.2,N/A,,Overcast,320,2013-02-13 19:34:00
1:53 PM,35.1,32.0,89,29.82,8.0,NNW,12.7,20.7,N/A,,Overcast,340,2013-02-13 19:53:00
2:53 PM,35.1,32.0,89,29.84,7.0,NNW,6.9,-,N/A,,Overcast,340,2013-02-13 20:53:00
3:20 PM,35.6,32.0,87,29.83,10.0,NNW,6.9,-,N/A,,Overcast,330,2013-02-13 21:20:00
3:53 PM,36.0,32.0,86,29.87,10.0,NW,11.5,-,N/A,,Overcast,320,2013-02-13 21:53:00
4:09 PM,35.6,30.2,81,29.86,10.0,NNW,9.2,16.1,N/A,,Overcast,330,2013-02-13 22:09:00
4:44 PM,35.6,30.2,81,29.88,8.0,NNW,8.1,-,N/A,,Overcast,330,2013-02-13 22:44:00
4:53 PM,35.1,32.0,89,29.90,7.0,NNW,6.9,-,N/A,,Overcast,330,2013-02-13 22:53:00
5:00 PM,35.6,32.0,87,29.88,7.0,NNW,5.8,-,N/A,,Overcast,330,2013-02-13 23:00:00
5:53 PM,35.1,30.9,85,29.92,9.0,Calm,Calm,-,N/A,,Overcast,0,2013-02-13 23:53:00
6:04 PM,35.6,30.2,81,29.90,10.0,WNW,4.6,-,N/A,,Overcast,300,2013-02-14 00:04:00
6:24 PM,35.6,30.2,81,29.91,10.0,West,4.6,-,N/A,,Overcast,280,2013-02-14 00:24:00
6:53 PM,35.1,30.9,85,29.95,10.0,NW,4.6,-,N/A,,Overcast,320,2013-02-14 00:53:00
7:14 PM,35.6,30.2,81,29.93,10.0,WNW,5.8,-,N/A,,Overcast,300,2013-02-14 01:14:00
7:53 PM,35.1,30.9,85,29.95,10.0,WNW,4.6,-,N/A,,Overcast,290,2013-02-14 01:53:00
8:53 PM,35.1,30.9,85,29.96,10.0,Calm,Calm,-,N/A,,Overcast,0,2013-02-14 02:53:00
9:53 PM,35.1,30.9,85,29.98,10.0,WSW,4.6,-,N/A,,Overcast,250,2013-02-14 03:53:00
10:53 PM,35.1,32.0,89,29.99,10.0,West,3.5,-,N/A,,Overcast,260,2013-02-14 04:53:00
10:59 PM,35.6,30.2,81,29.97,10.0,WSW,3.5,-,N/A,,Overcast,250,2013-02-14 04:59:00
11:15 PM,35.6,32.0,87,29.97,10.0,Calm,Calm,-,N/A,,Overcast,0,2013-02-14 05:15:00
11:28 PM,35.6,32.0,87,29.97,10.0,Variable,3.5,-,N/A,,Overcast,0,2013-02-14 05:28:00
11:50 PM,35.6,32.0,87,29.98,10.0,WSW,4.6,-,N/A,,Overcast,250,2013-02-14 05:50:00
11:53 PM,35.1,32.0,89,30.01,10.0,Calm,Calm,-,N/A,,Overcast,0,2013-02-14 05:53:00